Weather History for Pittsfield, IL

Change the Weather History Date:

Friday, August 2, 2013

  Actual Average (KUIN) Record (KUIN)
Temperature  
Mean Temperature 74 °F 76 °F  
Max Temperature 80 °F 85 °F 105 °F (1947)
Min Temperature 67 °F 66 °F 52 °F (1907)
Degree Days  
Heating Degree Days 0 0  
Month to date heating degree days 0  
Since 1 June heating degree days 16  
Since 1 July heating degree days 0  
Cooling Degree Days 8 11  
Month to date cooling degree days 22  
Year to date cooling degree days 678  
Since 1 June cooling degree days 592  
Growing Degree Days 24 (Base 50)    
Moisture  
Dew Point 66 °F    
Average Humidity 79    
Maximum Humidity 93    
Minimum Humidity 70    
Precipitation  
Precipitation 0.10 in 0.12 in 1.54 in (1995)
Month to date precipitation 0.24  
Year to date precipitation 22.36  
Sea Level Pressure  
Sea Level Pressure 29.97 in    
Wind  
Wind Speed 5 mph (South)    
Max Wind Speed 9 mph    
Max Gust Speed 16 mph    
Visibility 9 miles    
Events Rain    
T = Trace of Precipitation, MM = Missing Value Source: NWS Daily Summary

Daily Weather History Graph

Daily Weather History Graph

Search for Another Location

Airport:

Trip Planner

Search our weather history database for the weather conditions in past years. The results will help you decide how hot, cold, wet, or windy it might be!

Date:

Astronomy

Aug. 02, 2013 Rise Set
Actual Time 6:03 AM CDT 8:14 PM CDT
Civil Twilight 5:33 AM CDT 8:44 PM CDT
Nautical Twilight 4:56 AM CDT 9:21 PM CDT
Astronomical Twilight 4:16 AM CDT 10:01 PM CDT
Moon 2:24 AM CDT (8/2) 5:12 PM CDT (8/2)
Length of Visible Light 15h 10m
Length of Day
14h 11m
Waning Crescent, 15% of the Moon is Illuminated
Aug 2
Waning Crescent
Aug 6
New
Aug 14
First Quarter
Aug 20
Full
Aug 28
Last Quarter

Hourly Weather History & Observations

Time (CDT) Temp. Heat Index Dew Point Humidity Pressure Visibility Wind Dir Wind Speed Gust Speed Precip Events Conditions
12:15 AM 71.6 °F - 61.2 °F 70% 30.00 in 10.0 mi SSW 4.6 mph - N/A   Clear
12:35 AM 71.4 °F - 61.9 °F 72% 30.00 in 10.0 mi South 5.8 mph - N/A   Clear
12:55 AM 71.6 °F - 62.2 °F 72% 29.99 in 10.0 mi South 6.9 mph - N/A   Clear
1:15 AM 71.6 °F - 62.4 °F 73% 29.98 in 10.0 mi South 4.6 mph - N/A   Clear
1:35 AM 71.1 °F - 62.6 °F 75% 29.98 in 10.0 mi South 4.6 mph - N/A   Clear
1:55 AM 71.1 °F - 62.2 °F 74% 29.98 in 10.0 mi South 4.6 mph - N/A   Clear
2:15 AM 70.7 °F - 62.4 °F 75% 29.97 in 10.0 mi South 3.5 mph - N/A   Clear
2:35 AM 70.7 °F - 62.4 °F 75% 29.96 in 10.0 mi South 4.6 mph - N/A   Clear
2:55 AM 70.7 °F - 61.7 °F 73% 29.96 in 10.0 mi South 3.5 mph - N/A   Scattered Clouds
3:15 AM 70.2 °F - 61.7 °F 74% 29.97 in 10.0 mi South 4.6 mph - N/A   Mostly Cloudy
3:35 AM 70.3 °F - 61.7 °F 74% 29.97 in 10.0 mi SSW 3.5 mph - N/A   Overcast
3:55 AM 71.2 °F - 61.3 °F 71% 29.97 in 10.0 mi SSW 5.8 mph - N/A   Mostly Cloudy
4:15 AM 71.6 °F - 61.7 °F 71% 29.97 in 10.0 mi SSW 4.6 mph - N/A   Scattered Clouds
4:35 AM 71.2 °F - 62.1 °F 73% 29.99 in 10.0 mi SSW 3.5 mph - N/A   Scattered Clouds
4:55 AM 71.1 °F - 62.6 °F 75% 29.98 in 10.0 mi SSW 4.6 mph - N/A   Clear
5:15 AM 71.1 °F - 63.0 °F 75% 29.97 in 10.0 mi South 5.8 mph - N/A   Clear
5:35 AM 70.7 °F - 63.5 °F 78% 29.97 in 10.0 mi SSW 5.8 mph - N/A   Mostly Cloudy
5:55 AM 70.9 °F - 63.7 °F 78% 29.96 in 10.0 mi SSW 5.8 mph - N/A   Mostly Cloudy
6:15 AM 70.9 °F - 63.7 °F 78% 29.96 in 10.0 mi South 4.6 mph - N/A   Mostly Cloudy
6:35 AM 71.1 °F - 63.9 °F 78% 29.96 in 10.0 mi South 4.6 mph - N/A   Mostly Cloudy
6:55 AM 71.1 °F - 64.0 °F 78% 29.96 in 10.0 mi SSW 5.8 mph - N/A   Overcast
7:15 AM 71.2 °F - 64.4 °F 79% 29.96 in 10.0 mi South 4.6 mph - N/A   Mostly Cloudy
7:35 AM 71.6 °F - 64.4 °F 78% 29.96 in 10.0 mi South 4.6 mph - N/A   Mostly Cloudy
7:55 AM 72.1 °F - 64.6 °F 77% 29.97 in 10.0 mi South 3.5 mph - N/A   Overcast
8:15 AM 72.5 °F - 64.9 °F 77% 29.98 in 10.0 mi SSW 4.6 mph - N/A   Overcast
8:35 AM 72.9 °F - 65.3 °F 77% 29.98 in 10.0 mi SSW 3.5 mph - N/A   Scattered Clouds
8:55 AM 73.4 °F - 65.3 °F 76% 29.98 in 10.0 mi South 3.5 mph - N/A   Scattered Clouds
9:15 AM 73.8 °F - 65.8 °F 76% 29.98 in 10.0 mi WSW 3.5 mph - N/A   Mostly Cloudy
9:35 AM 74.7 °F - 66.4 °F 75% 29.98 in 10.0 mi Calm Calm - N/A   Overcast
9:55 AM 75.2 °F - 66.0 °F 73% 29.99 in 10.0 mi Calm Calm - N/A   Overcast
10:15 AM 75.6 °F - 66.4 °F 73% 29.98 in 10.0 mi Calm Calm - N/A   Mostly Cloudy
10:35 AM 76.1 °F - 66.4 °F 72% 29.99 in 10.0 mi Calm Calm - N/A   Mostly Cloudy
10:55 AM 76.3 °F - 67.8 °F 75% 29.99 in 10.0 mi South 3.5 mph - N/A   Mostly Cloudy
11:15 AM 76.8 °F - 68.2 °F 75% 29.99 in 10.0 mi South 6.9 mph - N/A   Mostly Cloudy
11:35 AM 78.4 °F - 68.0 °F 70% 29.99 in 10.0 mi South 6.9 mph - N/A   Scattered Clouds
11:55 AM 78.3 °F - 68.2 °F 71% 29.98 in 10.0 mi South 6.9 mph - N/A   Scattered Clouds
12:15 PM 78.1 °F - 68.0 °F 71% 29.98 in 10.0 mi South 4.6 mph - N/A   Mostly Cloudy
12:35 PM 78.3 °F - 68.2 °F 71% 29.99 in 10.0 mi SSW 8.1 mph - N/A   Overcast
12:55 PM 78.1 °F - 68.0 °F 71% 29.98 in 10.0 mi SSW 6.9 mph - N/A   Scattered Clouds
1:15 PM 79.0 °F - 68.7 °F 71% 29.97 in 10.0 mi South 6.9 mph - N/A   Mostly Cloudy
1:35 PM 79.0 °F - 69.3 °F 72% 29.96 in 10.0 mi South 5.8 mph - N/A   Mostly Cloudy
1:55 PM 80.1 °F 83.2 °F 70.0 °F 71% 29.95 in 10.0 mi SSE 9.2 mph - N/A   Mostly Cloudy
2:15 PM 80.4 °F 83.6 °F 69.8 °F 70% 29.95 in 10.0 mi South 8.1 mph - N/A   Mostly Cloudy
2:35 PM 79.9 °F - 69.6 °F 71% 29.95 in 10.0 mi South 4.6 mph - N/A   Mostly Cloudy
2:55 PM 79.7 °F - 70.0 °F 72% 29.95 in 10.0 mi SSW 3.5 mph - N/A   Overcast
3:15 PM 79.7 °F - 70.0 °F 72% 29.95 in 10.0 mi South 5.8 mph - N/A   Overcast
3:35 PM 78.8 °F - 69.4 °F 73% 29.95 in 10.0 mi SSW 9.2 mph - N/A   Overcast
3:55 PM 77.9 °F - 68.9 °F 74% 29.94 in 10.0 mi South 9.2 mph 16.1 mph N/A   Overcast
4:15 PM 75.6 °F - 69.1 °F 80% 29.95 in 10.0 mi SSW 5.8 mph 16.1 mph N/A   Overcast
4:35 PM 73.9 °F - 69.6 °F 86% 29.95 in 7.0 mi SSW 6.9 mph - N/A Rain Light Rain
4:55 PM 73.0 °F - 69.8 °F 90% 29.95 in 5.0 mi SSW 8.1 mph - N/A   Light Drizzle
5:15 PM 71.8 °F - 68.5 °F 89% 29.96 in 4.0 mi South 8.1 mph - 0.02 in Rain Rain
5:35 PM 71.6 °F - 68.5 °F 90% 29.95 in 3.0 mi SSE 5.8 mph - 0.08 in Rain Rain
5:55 PM 72.5 °F - 69.4 °F 90% 29.95 in 3.0 mi South 5.8 mph - 0.10 in Rain Light Rain
6:15 PM 72.5 °F - 69.6 °F 91% 29.93 in 5.0 mi SSE 6.9 mph - N/A   Scattered Clouds
6:35 PM 72.5 °F - 68.5 °F 87% 29.94 in 7.0 mi South 3.5 mph - N/A   Scattered Clouds
6:55 PM 73.2 °F - 68.9 °F 86% 29.94 in 10.0 mi South 5.8 mph - N/A   Clear
7:15 PM 73.4 °F - 68.9 °F 86% 29.95 in 10.0 mi South 4.6 mph - N/A   Clear
7:35 PM 72.5 °F - 68.5 °F 87% 29.95 in 10.0 mi South 4.6 mph - N/A   Scattered Clouds
7:55 PM 72.3 °F - 68.7 °F 88% 29.96 in 10.0 mi South 8.1 mph - N/A   Overcast
8:15 PM 71.6 °F - 68.4 °F 89% 29.96 in 7.0 mi South 5.8 mph - N/A   Overcast
8:35 PM 71.2 °F - 67.5 °F 88% 29.97 in 10.0 mi South 3.5 mph - N/A   Overcast
8:55 PM 70.3 °F - 67.3 °F 90% 29.96 in 10.0 mi South 4.6 mph - N/A   Overcast
9:15 PM 69.8 °F - 67.1 °F 91% 29.96 in 7.0 mi South 3.5 mph - N/A   Scattered Clouds
9:35 PM 69.3 °F - 66.7 °F 92% 29.95 in 5.0 mi South 3.5 mph - N/A   Scattered Clouds
9:55 PM 68.9 °F - 66.6 °F 92% 29.95 in 4.0 mi Calm Calm - N/A   Scattered Clouds
10:15 PM 68.4 °F - 66.2 °F 93% 29.95 in 2.5 mi Calm Calm - N/A   Clear
10:35 PM 68.0 °F - 65.8 °F 93% 29.95 in 0.8 mi Calm Calm - N/A   Mist
10:55 PM 67.3 °F - 65.3 °F 93% 29.96 in 1.2 mi Calm Calm - N/A   Mist
11:15 PM 67.3 °F - 65.3 °F 93% 29.96 in 2.0 mi Calm Calm - N/A   Clear
11:35 PM 67.3 °F - 65.3 °F 93% 29.97 in 3.0 mi Calm Calm - N/A   Scattered Clouds
11:55 PM 67.1 °F - 65.1 °F 93% 29.97 in 2.5 mi Calm Calm - N/A   Clear